TimeCST,TemperatureF,Dew PointF,Humidity,Sea Level PressureIn,VisibilityMPH,Wind Direction,Wind SpeedMPH,Gust SpeedMPH,PrecipitationIn,Events,Conditions,WindDirDegrees,DateUTC
12:53 AM,30.0,25.0,82,30.39,10.0,SSE,4.6,-,N/A,,Clear,160,2013-01-18 06:53:00
1:53 AM,30.0,24.1,79,30.38,10.0,South,6.9,-,N/A,,Clear,170,2013-01-18 07:53:00
2:53 AM,32.0,26.1,79,30.37,10.0,SSW,9.2,-,N/A,,Clear,200,2013-01-18 08:53:00
3:53 AM,33.1,26.1,75,30.35,10.0,South,10.4,-,N/A,,Clear,190,2013-01-18 09:53:00
4:53 AM,33.1,26.1,75,30.32,10.0,South,9.2,-,N/A,,Clear,190,2013-01-18 10:53:00
5:53 AM,34.0,26.1,73,30.30,10.0,South,11.5,-,N/A,,Clear,190,2013-01-18 11:53:00
6:53 AM,34.0,26.1,73,30.29,10.0,SSW,13.8,-,N/A,,Clear,200,2013-01-18 12:53:00
7:53 AM,35.1,27.0,72,30.27,10.0,South,12.7,21.9,N/A,,Clear,190,2013-01-18 13:53:00
8:53 AM,39.0,28.0,65,30.24,10.0,South,15.0,-,N/A,,Clear,190,2013-01-18 14:53:00
9:53 AM,44.1,28.9,55,30.23,10.0,SSW,15.0,-,N/A,,Clear,200,2013-01-18 15:53:00
10:53 AM,48.0,30.0,50,30.19,10.0,SSW,20.7,31.1,N/A,,Clear,210,2013-01-18 16:53:00
11:53 AM,53.1,28.9,40,30.13,10.0,SSW,24.2,32.2,N/A,,Clear,210,2013-01-18 17:53:00
12:53 PM,55.0,30.0,38,30.07,10.0,SSW,27.6,39.1,N/A,,Clear,210,2013-01-18 18:53:00
1:53 PM,57.0,30.9,37,30.04,10.0,SW,20.7,33.4,N/A,,Clear,220,2013-01-18 19:53:00
2:53 PM,59.0,30.9,35,30.01,10.0,SW,20.7,32.2,N/A,,Clear,220,2013-01-18 20:53:00
3:53 PM,59.0,30.0,33,30.01,10.0,SW,17.3,31.1,N/A,,Clear,220,2013-01-18 21:53:00
4:53 PM,55.9,30.0,37,30.02,10.0,SW,23.0,29.9,N/A,,Clear,230,2013-01-18 22:53:00
5:53 PM,50.0,30.0,46,30.04,10.0,SW,9.2,-,N/A,,Clear,220,2013-01-18 23:53:00
6:53 PM,48.0,30.0,50,30.05,10.0,SSW,11.5,-,N/A,,Clear,210,2013-01-19 00:53:00
7:53 PM,45.0,28.9,53,30.05,10.0,South,8.1,-,N/A,,Clear,190,2013-01-19 01:53:00
8:53 PM,45.0,30.0,56,30.03,10.0,SSW,11.5,-,N/A,,Clear,210,2013-01-19 02:53:00
9:53 PM,46.0,30.0,54,30.03,10.0,SW,10.4,-,N/A,,Clear,220,2013-01-19 03:53:00
10:53 PM,46.0,30.0,54,30.01,10.0,SSW,11.5,-,N/A,,Clear,210,2013-01-19 04:53:00
11:53 PM,44.1,30.0,58,29.99,10.0,SSW,11.5,-,N/A,,Clear,210,2013-01-19 05:53:00